Theta_e
335 338 339 338 339 340 342 344 346 346 347 348 350 351 354 356 356 352 352 356 353 353 354 356 363 363 364 362 362 361 361 358 358
330 337 339 339 339 341 342 344 346 347 348 348 349 349 353 354 354 355 354 357 357 354 359 356 361 363 363 362 362 362 362 356 359
328 334 339 340 340 340 342 344 346 347 348 348 349 350 351 351 352 354 355 356 357 358 358 360 360 361 362 362 362 362 362 360 361
330 334 335 340 342 342 343 343 344 345 347 348 348 349 352 351 350 351 353 353 355 358 360 361 360 361 361 362 362 363 362 361 360
316 325 331 337 340 340 341 342 342 343 345 345 346 350 352 350 352 351 350 351 353 357 358 360 361 362 362 362 362 362 362 360 358
306 310 312 317 320 323 337 341 342 342 343 345 345 347 347 349 349 350 350 351 352 353 356 358 358 361 361 362 361 362 362 362 361
304 305 306 308 309 314 319 326 336 342 343 344 346 346 344 347 346 349 351 355 354 352 355 355 356 358 360 362 362 362 362 362 362
305 303 304 305 305 308 310 314 323 334 340 341 345 347 347 347 350 350 347 349 356 354 353 354 356 355 356 358 357 356 361 362 361
304 304 304 304 304 306 307 310 315 325 334 339 342 342 346 351 353 354 353 353 352 356 354 354 355 353 354 354 352 339 340 353 360
303 303 304 305 304 304 306 308 310 320 331 339 341 342 342 348 351 352 353 352 353 353 353 355 353 353 354 355 357 334 335 340 357
303 303 303 305 306 306 307 307 309 315 325 330 336 344 342 346 349 350 353 352 352 352 352 353 353 352 355 355 354 332 330 335 356
302 303 304 305 307 309 310 310 309 309 316 324 328 337 344 347 349 349 350 350 353 352 350 350 352 352 353 353 354 328 326 334 352
302 303 304 305 307 310 310 311 310 309 311 317 323 329 339 343 347 346 351 351 352 353 353 351 350 349 352 344 354 331 323 330 347
303 303 304 306 307 309 310 311 311 309 309 310 319 326 338 339 341 346 346 348 355 353 353 353 353 351 352 353 350 351 322 320 349
302 302 303 305 307 308 310 311 311 311 310 311 317 323 333 334 337 340 344 348 347 354 355 354 353 353 351 352 354 333 326 319 322
301 302 303 305 305 308 309 311 311 311 313 314 314 322 330 330 333 337 340 345 347 346 347 351 352 350 349 351 354 354 322 317 318
299 299 300 302 304 305 306 309 310 311 312 315 313 316 325 328 328 331 336 338 342 344 344 346 348 350 349 351 354 355 356 346 336
298 298 298 299 301 303 305 308 308 310 310 312 314 312 320 324 325 328 332 335 337 343 348 344 345 349 351 350 351 352 341 343 352
298 299 300 300 301 302 303 305 306 308 311 312 314 313 316 320 321 324 328 332 332 318 315 313 312 313 326 350 332 321 312 311 311
302 300 301 300 300 301 301 302 304 307 309 310 313 314 317 318 317 320 322 327 331 329 327 311 308 305 307 307 322 310 309 308 308
Wind_Speed
12 19 20 21 22 21 20 19 18 17 16 16 16 16 16 13 14 10 10 10 8 7 7 7 8 8 7 6 5 5 4 5 4
5 14 18 20 20 20 20 19 19 18 17 16 17 18 14 14 13 13 11 10 9 7 7 6 7 8 8 8 7 7 6 4 5
10 8 13 15 17 17 17 18 18 18 18 18 19 18 16 14 15 14 12 10 11 10 8 7 8 9 9 9 8 8 8 6 6
19 12 5 9 10 12 14 15 16 17 16 16 16 16 15 15 14 15 14 12 12 11 9 8 9 9 9 9 10 9 9 8 7
19 19 18 14 3 3 10 11 12 14 15 15 15 14 14 16 15 14 15 14 14 13 12 10 9 9 9 9 10 10 11 10 9
16 19 21 18 18 16 13 3 5 10 13 14 12 11 12 12 15 15 16 15 14 13 13 12 11 10 10 10 11 11 11 11 10
15 15 16 16 17 15 13 13 13 9 6 10 12 14 13 14 13 14 16 15 14 14 13 13 13 13 12 11 11 11 11 11 11
15 15 17 16 15 14 13 14 14 13 11 8 11 13 15 17 16 15 13 13 14 15 14 13 14 13 13 13 12 10 12 12 12
13 15 16 15 15 15 14 13 13 14 14 12 10 12 16 14 14 14 15 15 13 14 15 15 13 15 14 15 12 12 14 13 11
12 14 16 16 14 14 14 14 13 13 13 13 12 10 12 14 14 14 15 15 14 15 15 14 15 15 15 16 15 12 16 17 13
11 16 16 16 15 15 14 14 13 13 13 12 11 9 7 11 14 15 14 15 15 15 14 14 14 15 15 15 14 14 17 17 17
15 16 16 14 14 16 17 15 14 14 14 12 11 11 10 8 11 13 14 16 15 14 13 14 14 15 15 15 16 15 17 16 16
21 19 17 17 17 16 15 15 15 13 13 13 12 11 13 10 7 10 13 14 14 13 12 14 12 15 15 16 17 14 18 18 14
16 17 19 19 18 15 14 14 15 14 14 13 13 15 11 12 11 8 8 9 11 13 13 13 13 15 14 15 16 17 18 20 15
17 18 18 17 17 18 15 14 14 15 15 15 15 15 14 13 11 12 7 7 8 11 12 13 14 14 14 13 15 17 16 20 24
17 18 16 15 16 16 18 14 13 16 16 14 17 17 16 13 12 13 12 9 8 8 7 11 10 11 12 12 12 13 20 18 22
17 17 17 18 18 18 17 17 16 17 17 16 14 18 17 15 13 13 11 9 8 8 11 9 10 11 11 12 12 13 12 12 13
15 13 13 15 17 18 19 17 19 18 19 18 17 14 16 12 13 10 11 10 10 9 9 11 13 13 13 13 14 14 13 13 13
11 14 13 14 16 16 18 19 20 20 18 17 17 16 13 9 10 9 9 11 10 14 17 16 17 20 14 12 16 10 13 15 14
15 13 15 15 15 14 15 17 18 17 19 16 15 15 12 9 9 9 10 11 12 12 9 16 16 19 19 16 22 13 15 16 15
Wind_Direction
217 206 202 202 199 197 198 197 196 196 196 201 199 202 207 204 210 219 214 205 204 208 203 199 180 185 195 178 185 197 194 198 202
263 210 207 206 197 198 195 196 199 196 198 203 201 205 202 205 210 217 222 213 213 212 210 196 197 187 192 183 187 193 188 202 198
359 226 211 204 195 200 197 199 198 200 202 202 203 204 205 208 213 218 219 214 213 214 209 207 194 203 197 192 194 189 202 197 201
29 37 186 209 201 204 198 198 199 202 206 208 209 207 209 210 209 219 216 218 217 217 211 198 201 201 209 203 198 196 199 208 203
32 43 45 42 20 164 193 205 209 208 210 209 212 210 207 211 204 208 221 217 217 214 221 205 204 200 206 210 208 202 208 206 202
31 34 36 36 40 30 25 0 223 218 216 216 214 207 207 215 219 210 217 222 216 215 222 226 213 201 204 207 209 207 212 219 215
35 31 30 26 25 22 13 11 11 7 284 248 225 212 209 209 207 213 218 221 218 217 213 218 227 219 211 210 209 208 214 217 222
42 26 21 16 12 9 8 2 360 359 1 348 276 241 229 223 218 210 211 215 217 218 220 217 220 227 228 221 217 212 210 213 220
32 24 17 7 358 360 360 353 342 343 345 343 327 271 246 239 230 223 218 214 213 215 217 220 218 224 225 230 230 214 198 208 214
12 7 1 358 352 344 345 341 337 331 328 326 328 300 259 244 235 228 223 222 219 219 218 221 219 222 226 225 227 212 202 207 220
3 350 348 343 340 336 334 330 329 327 325 327 324 340 306 255 237 236 230 226 223 219 220 220 221 224 225 228 231 204 202 205 226
344 336 330 328 327 326 323 324 327 326 326 326 336 329 340 308 248 242 237 232 230 227 225 224 224 226 226 225 233 206 206 199 225
326 325 323 320 322 318 321 326 324 322 319 321 318 324 323 324 313 285 251 242 239 234 230 232 234 234 229 228 234 211 207 201 228
308 311 315 317 313 315 318 321 320 313 311 308 309 311 297 305 311 295 263 275 258 238 235 237 231 237 236 232 228 232 203 200 220
311 312 311 307 305 311 317 320 317 310 305 305 303 304 298 305 305 297 278 269 263 253 233 232 232 231 236 234 236 227 215 204 208
313 312 311 306 302 302 307 313 317 310 310 309 305 300 293 297 293 284 290 273 258 251 246 230 232 235 237 241 235 234 217 208 209
315 315 310 307 301 293 295 301 305 305 307 305 292 291 286 285 283 283 284 280 269 248 243 230 233 236 236 243 243 237 232 217 217
311 308 302 300 295 293 290 295 297 301 303 301 289 278 277 271 279 283 280 270 270 261 243 251 247 240 241 242 242 236 231 229 218
294 301 300 294 292 292 295 297 297 296 296 296 287 277 267 262 274 281 280 277 273 245 244 259 255 255 256 247 239 255 210 213 227
300 294 299 301 290 290 292 289 288 290 291 291 291 270 269 274 267 268 269 271 268 274 263 238 241 243 242 229 247 248 217 220 217